DECAYED

FENGYUN 1C DEB, 30752 (Decayed)

Orbit data source: Space-Track

FENGYUN 1C DEB, 30752 was space debris in SSO originally from a launch on Mon, 10 May 1999 UTC launched from the Taiyaun Space Center, China (TSC). Fengyun 1C debris stems from the Chinese weather satellite Fengyun-1C, which was intentionally destroyed by a Chinese anti-satellite missile in 2007. This event dramatically increased the amount of space debris, with thousands of trackable fragments posing hazards to satellites and human spaceflight. The Fengyun 1C debris cloud has become a focal point in discussions about space sustainability and the need for international regulations to prevent the creation of new debris.

Loading next visibility...
Identifier
30752, 1999-025ATN
Orbit
Decayed
Last TLE update
8 months ago
Origin
Manufacturer
Unknown
Mission
Decayed spacecraft
Bus & Motor
Unknown
Mass
Unknown
Launch date (UTC)
1999-05-10 (26 years ago)
Launch vehicle
Unknown
Launch site
Taiyaun Space Center, China (TSC)
Object type
Payload
Rocket body
Debris
Shape & HBR
Unknown
Radar Cross Section
Small (<0.1 m²)

Expand to show TLE details & history

TLE from 8 months ago
0 FENGYUN 1C DEB
1 30752U 99025ATN 24320.13575689  .08434282  11748+0  38143-1 0  9998
2 30752  98.8302 174.6965 0009252  59.3818 300.8361 15.89786375924688
Epoch: 2024-11-15T03:15Z
TLE epoch observation values (Epoch: 2024-11-15T03:15:29.395Z)
Latitude
-0.00005°
Longitude
71.11608°
Altitude
302.855 km
Speed
7.728 km/s
True Right ascension
11h 38m 47s
True Declination
0° 00' 00"
Sunlit
Object was in daylight at epoch
Visualization orbit readout
Visualization observer readout
Orbital elements
Apogee altitude
306.002 km
Perigee altitude
293.645 km
Semi-major axis
6,677.96 km
Eccentricity
0.00093
Inclination
98.8302°
RAAN
174.6965°
Arg. of periapsis
59.3818°
True anomaly
Unknown
Mean anomaly
300.8361°
Eccentric anomaly
Unknown
Mean motion
3.9772 °/min
Orbital period
90.52 mins
BSTAR
0.038143
Loading maneuver chart data...
Loading SW <> Apogee altitude chart data...
Loading historical data...
Loading historical data...
Loading historical data...
Loading historical data...
Loading historical data...
Loading historical data...
Loading historical data...

FENGYUN 1C DEB Visibility forecast

Observer location: undefined°, undefined°

Span
Click to sort rows by Start time (UTC) header in descending order
Start Az.
Max El. time (UTC)
Max El. Az.
Max El.
End time (UTC)
End Az.
4 mins2025-07-10 03:03:16.756Z149.35° SSE2025-07-10 03:06:16.756Z357.208° N40.694°2025-07-10 03:07:16.756Z151.898° SSE
4 mins2025-07-10 03:18:16.756Z158.206° S2025-07-10 03:19:16.756Z102.119° ESE44.595°2025-07-10 03:22:16.756Z157.33° SSE
4 mins2025-07-10 06:34:16.756Z284.136° WNW2025-07-10 06:34:16.756Z284.136° WNW41.558°2025-07-10 06:38:16.756Z200.182° SSW
|